COMS 1

Last updated on Nov. 29, 2020, 6:16 a.m. UTC

1 36744U 10032A   20333.56160545 -.00000326  00000-0  00000-0 0  9995
2 36744   0.0186  86.5673 0001119 168.3383 143.3448  1.00270904 30766
UTC
Height (km)
Latitude
Longitude
Inclination
Orbital Period
UTC large
Height (km)
Speed (km/s)
/
Latitude / Longitude
Inclination (degrees)
Orbital Period (minutes)
Azimuth
Elevation
Range (km)
Doppler Factor
iOS Compass Heading
iOS Angle

Next 30 passes for location: Hong Kong

Rise time Rise Azimuth (degrees) Set time Set Azimuth (degrees) Duration Max altitude (degrees)

No matching passes for this satellites